Location: Dal�� Lhota
(48.7500°N, 14.0167°E)
Time: 08:30:28
(UTC+00:00)

Altair - All Passes

Search period start: 24 July 2021 00:00
Search period end: 03 August 2021 00:00
Orbit: 1501 x 1682 km, 47.2° (Epoch: 23 July)

Date Brightness Start Highest point End Pass type
(mag) Time Alt. Az. Time Alt. Az. Time Alt. Az.
24 Jul - 01:15:55 10° S 01:22:36 23° SE 01:29:12 10° E visible
24 Jul - 03:16:50 10° SW 03:25:47 56° SSE 03:34:40 10° ENE daylight
24 Jul - 05:20:51 10° W 05:30:04 82° S 05:39:18 10° E daylight
24 Jul - 07:25:28 10° W 07:34:33 69° SSW 07:43:46 10° ESE daylight
24 Jul - 09:30:19 10° W 09:38:12 33° SW 09:46:15 10° SSE daylight
25 Jul - 00:51:16 10° S 00:57:35 21° SE 01:03:49 10° E visible
25 Jul - 02:51:46 10° SW 03:00:41 54° SSE 03:09:30 10° ENE visible
25 Jul - 04:55:41 10° W 05:04:54 81° S 05:14:07 10° E daylight
25 Jul - 07:00:18 10° W 07:09:25 71° SSW 07:18:38 10° ESE daylight
25 Jul - 09:05:05 10° WNW 09:13:09 36° SW 09:21:21 10° SSE daylight
26 Jul - 00:26:40 10° S 00:32:35 19° SE 00:38:24 10° E visible
26 Jul - 02:26:43 10° SW 02:35:35 51° SSE 02:44:19 10° ENE visible
26 Jul - 04:30:31 10° WSW 04:39:45 81° S 04:48:57 10° E daylight
26 Jul - 06:35:09 10° W 06:44:16 73° SSW 06:53:30 10° ESE daylight
26 Jul - 08:39:53 10° WNW 08:48:05 38° SW 08:56:25 10° SSE daylight
26 Jul - 10:49:11 10° WSW 10:50:37 10° WSW 10:52:05 10° SW daylight
27 Jul - 00:02:08 10° SSE 00:07:34 17° SE 00:12:55 10° E visible
27 Jul - 02:01:41 10° SW 02:10:30 48° SSE 02:19:09 10° ENE visible
27 Jul - 04:05:21 10° WSW 04:14:35 79° S 04:23:47 10° E daylight
27 Jul - 06:09:58 10° W 06:19:08 75° SSW 06:28:21 10° ESE daylight
27 Jul - 08:14:41 10° WNW 08:23:01 41° SW 08:31:28 10° SSE daylight
27 Jul - 10:22:35 10° WSW 10:25:39 12° SW 10:28:44 10° SW daylight
27 Jul - 23:37:43 10° SSE 23:42:34 15° SE 23:47:21 10° E visible
28 Jul - 01:36:41 10° SW 01:45:25 46° SE 01:53:58 10° ENE visible
28 Jul - 03:40:11 10° WSW 03:49:27 78° SSE 03:58:37 10° E daylight
28 Jul - 05:44:48 10° W 05:54:00 77° SSW 06:03:12 10° ESE daylight
28 Jul - 07:49:30 10° WNW 07:57:56 43° SW 08:06:30 10° SSE daylight
28 Jul - 09:56:39 10° W 10:00:40 14° SW 10:04:43 10° SSW daylight
28 Jul - 23:13:27 10° SSE 23:17:35 14° SE 23:21:40 10° E visible
29 Jul - 01:11:42 10° SSW 01:20:19 43° SE 01:28:47 10° ENE visible
29 Jul - 03:15:01 10° WSW 03:24:17 77° SSE 03:33:27 10° E daylight
29 Jul - 05:19:38 10° W 05:28:50 78° S 05:38:03 10° ESE daylight
29 Jul - 07:24:18 10° WNW 07:32:52 46° SW 07:41:31 10° SE daylight
29 Jul - 09:30:57 10° W 09:35:40 15° SW 09:40:27 10° SSW daylight
29 Jul - 22:49:24 10° SE 22:52:36 12° SE 22:55:45 10° ESE visible
30 Jul - 00:46:43 10° SSW 00:55:15 41° SE 01:03:36 10° ENE visible
30 Jul - 02:49:52 10° WSW 02:59:08 75° SSE 03:08:17 10° E visible
30 Jul - 04:54:27 10° W 05:03:41 80° S 05:12:53 10° ESE daylight
30 Jul - 06:59:07 10° WNW 07:07:47 48° SSW 07:16:30 10° SE daylight
30 Jul - 09:05:23 10° W 09:10:41 17° SW 09:16:03 10° SSW daylight
30 Jul - 22:25:58 10° SE 22:27:36 11° ESE 22:29:15 10° ESE visible
31 Jul - 00:21:45 10° SSW 00:30:11 38° SE 00:38:24 10° ENE visible
31 Jul - 02:24:42 10° WSW 02:34:00 73° SSE 02:43:08 10° E visible
31 Jul - 04:29:17 10° W 04:38:32 81° S 04:47:44 10° ESE daylight
31 Jul - 06:33:56 10° WNW 06:42:42 51° SSW 06:51:29 10° SE daylight
31 Jul - 08:39:53 10° W 08:45:41 19° SW 08:51:32 10° S daylight
31 Jul - 23:56:49 10° SSW 00:05:06 36° SE 00:13:12 10° ENE visible
01 Aug - 01:59:33 10° WSW 02:08:52 71° SSE 02:17:58 10° E visible
01 Aug - 04:04:06 10° W 04:13:23 82° S 04:22:34 10° E daylight
01 Aug - 06:08:46 10° WNW 06:17:36 54° SSW 06:26:27 10° SE daylight
01 Aug - 08:14:28 10° W 08:20:40 21° SW 08:26:57 10° S daylight
01 Aug - 23:31:54 10° SSW 23:40:03 34° SE 23:47:59 10° E visible
02 Aug - 01:34:25 10° WSW 01:43:43 69° SSE 01:52:49 10° E visible
02 Aug - 03:38:54 10° W 03:48:13 82° S 03:57:25 10° E daylight
02 Aug - 05:43:36 10° WNW 05:52:29 57° SSW 06:01:24 10° SE daylight
02 Aug - 07:49:05 10° W 07:55:40 23° SW 08:02:18 10° S daylight
02 Aug - 23:07:02 10° SSW 23:14:59 31° SE 23:22:45 10° E visible
